SP5FLS-15 Weather Reports


time (UTC)temp
C
wind
direction
speed
KPH
gust
KPH
rain 1hr
cm
rain 24hr
cm
rain mn
cm
humidity
%
barometer
mb
20260503055002 13 0.0 0.0 0.00 0.00 0.00 10 1015.4
20260503054501 13 0.0 0.0 0.00 0.00 0.00 10 1015.8
20260503054002 13 0.0 0.0 0.00 0.00 0.00 10 1015.4
20260503053501 12 0.0 0.0 0.00 0.00 0.00 10 1016.1
20260503053002 12 0.0 0.0 0.00 0.00 0.00 10 1015.5
20260503052502 12 0.0 0.0 0.00 0.00 0.00 99 1015.8
20260503052002 11 0.0 0.0 0.00 0.00 0.00 97 1015.8
20260503051502 11 0.0 0.0 0.00 0.00 0.00 94 1015.5
20260503051002 11 0.0 0.0 0.00 0.00 0.00 92 1015.8
20260503050502 10 0.0 0.0 0.00 0.00 0.00 90 1015.9
20260503050001 10 0.0 0.0 0.00 0.00 0.00 89 1015.8
20260503045502 10 0.0 0.0 0.00 0.00 0.00 87 1015.6
20260503045002 10 0.0 0.0 0.00 0.00 0.00 83 1015.9
20260503044502 9 0.0 0.0 0.00 0.00 0.00 83 1015.9
20260503044002 9 0.0 0.0 0.00 0.00 0.00 81 1015.8
20260503043001 8 0.0 0.0 0.00 0.00 0.00 81 1015.7
20260503042502 8 0.0 0.0 0.00 0.00 0.00 79 1015.6
20260503042002 8 0.0 0.0 0.00 0.00 0.00 80 1016.1
20260503041502 8 0.0 0.0 0.00 0.00 0.00 79 1016.0
20260503040502 8 0.0 0.0 0.00 0.00 0.00 79 1015.7
20260503040002 8 0.0 0.0 0.00 0.00 0.00 78 1015.8
20260503035501 8 0.0 0.0 0.00 0.00 0.00 77 1015.8
20260503035002 8 0.0 0.0 0.00 0.00 0.00 77 1015.8
20260503034502 7 0.0 0.0 0.00 0.00 0.00 78 1015.8
20260503033502 7 0.0 0.0 0.00 0.00 0.00 76 1016.0
20260503033002 7 0.0 0.0 0.00 0.00 0.00 77 1015.7
20260503032502 7 0.0 0.0 0.00 0.00 0.00 78 1015.9
20260503032001 7 0.0 0.0 0.00 0.00 0.00 76 1015.7
20260503031502 7 0.0 0.0 0.00 0.00 0.00 77 1016.1
20260503031001 7 0.0 0.0 0.00 0.00 0.00 76 1015.9
20260503030502 7 0.0 0.0 0.00 0.00 0.00 77 1015.6
20260503030002 7 0.0 0.0 0.00 0.00 0.00 78 1015.7
20260503025502 7 0.0 0.0 0.00 0.00 0.00 79 1015.6
20260503025002 7 0.0 0.0 0.00 0.00 0.00 80 1015.6
20260503024502 7 0.0 0.0 0.00 0.00 0.00 80 1015.9
20260503024002 7 0.0 0.0 0.00 0.00 0.00 81 1015.7
20260503023502 7 0.0 0.0 0.00 0.00 0.00 83 1015.6
20260503023001 7 0.0 0.0 0.00 0.00 0.00 82 1015.9
20260503022502 7 0.0 0.0 0.00 0.00 0.00 84 1015.6
20260503022001 7 0.0 0.0 0.00 0.00 0.00 82 1016.0
20260503021502 7 0.0 0.0 0.00 0.00 0.00 85 1015.7
20260503021001 7 0.0 0.0 0.00 0.00 0.00 86 1015.7
20260503020502 7 0.0 0.0 0.00 0.00 0.00 85 1015.9
20260503020001 7 0.0 0.0 0.00 0.00 0.00 84 1015.7
20260503015502 8 0.0 0.0 0.00 0.00 0.00 84 1015.3
20260503015001 7 0.0 0.0 0.00 0.00 0.00 84 1015.5
20260503014502 7 0.0 0.0 0.00 0.00 0.00 84 1016.0
20260503014002 8 0.0 0.0 0.00 0.00 0.00 86 1015.8
20260503013502 8 0.0 0.0 0.00 0.00 0.00 86 1016.4
20260503013002 8 0.0 0.0 0.00 0.00 0.00 87 1015.8
20260503012502 7 0.0 0.0 0.00 0.00 0.00 87 1016.2
20260503012002 8 0.0 0.0 0.00 0.00 0.00 88 1016.0
20260503011501 8 0.0 0.0 0.00 0.00 0.00 88 1015.9
20260503011002 8 0.0 0.0 0.00 0.00 0.00 88 1016.1
20260503010501 4 0.0 0.0 0.00 0.00 0.00 44 1015.8
20260503010002 8 0.0 0.0 0.00 0.00 0.00 88 1015.6
20260503005501 8 0.0 0.0 0.00 0.00 0.00 89 1015.8
20260503005002 8 0.0 0.0 0.00 0.00 0.00 91 1016.0
20260503004501 8 0.0 0.0 0.00 0.00 0.00 91 1015.9
20260503004002 8 0.0 0.0 0.00 0.00 0.00 91 1016.0
20260503003501 8 0.0 0.0 0.00 0.00 0.00 92 1015.8
20260503003002 8 0.0 0.0 0.00 0.00 0.00 93 1015.8
20260503002502 8 0.0 0.0 0.00 0.00 0.00 93 1015.5
20260503002001 8 0.0 0.0 0.00 0.00 0.00 94 1016.3
20260503001502 8 0.0 0.0 0.00 0.00 0.00 94 1015.3
20260503001001 8 0.0 0.0 0.00 0.00 0.00 95 1016.1
20260503000502 8 0.0 0.0 0.00 0.00 0.00 96 1015.9
20260503000002 8 0.0 0.0 0.00 0.00 0.00 96 1016.1
20260502235502 8 0.0 0.0 0.00 0.00 0.00 97 1015.7
20260502235002 8 0.0 0.0 0.00 0.00 0.00 99 1015.5
20260502234501 8 0.0 0.0 0.00 0.00 0.00 99 1015.9
20260502234002 8 0.0 0.0 0.00 0.00 0.00 98 1016.1
20260502233501 8 0.0 0.0 0.00 0.00 0.00 99 1016.2
20260502233002 8 0.0 0.0 0.00 0.00 0.00 10 1016.2
20260502232509 8 0.0 0.0 0.00 0.00 0.00 10 1016.3
20260502232002 8 0.0 0.0 0.00 0.00 0.00 10 1016.2
20260502231502 8 0.0 0.0 0.00 0.00 0.00 10 1015.6
20260502231002 8 0.0 0.0 0.00 0.00 0.00 10 1016.2
20260502230502 8 0.0 0.0 0.00 0.00 0.00 10 1016.5
20260502230002 8 0.0 0.0 0.00 0.00 0.00 10 1016.2
20260502225501 8 0.0 0.0 0.00 0.00 0.00 10 1016.2
20260502225002 8 0.0 0.0 0.00 0.00 0.00 10 1016.3
20260502224502 8 0.0 0.0 0.00 0.00 0.00 10 1016.5
20260502224002 8 0.0 0.0 0.00 0.00 0.00 10 1016.3
20260502223502 8 0.0 0.0 0.00 0.00 0.00 10 1016.2
20260502223002 8 0.0 0.0 0.00 0.00 0.00 10 1016.4
20260502222502 9 0.0 0.0 0.00 0.00 0.00 10 1016.3
20260502222001 8 0.0 0.0 0.00 0.00 0.00 10 1016.3
20260502221502 9 0.0 0.0 0.00 0.00 0.00 10 1016.7
20260502221002 9 0.0 0.0 0.00 0.00 0.00 10 1016.3
20260502220502 9 0.0 0.0 0.00 0.00 0.00 10 1016.5
20260502220002 9 0.0 0.0 0.00 0.00 0.00 10 1016.6
20260502215502 9 0.0 0.0 0.00 0.00 0.00 10 1016.6
20260502215002 9 0.0 0.0 0.00 0.00 0.00 10 1016.5
20260502214501 9 0.0 0.0 0.00 0.00 0.00 10 1016.5
20260502214002 9 0.0 0.0 0.00 0.00 0.00 10 1016.2
20260502213501 9 0.0 0.0 0.00 0.00 0.00 10 1016.6
20260502213002 10 0.0 0.0 0.00 0.00 0.00 10 1016.7
20260502212501 9 0.0 0.0 0.00 0.00 0.00 10 1016.5
20260502212002 10 0.0 0.0 0.00 0.00 0.00 10 1016.4
20260502211502 10 0.0 0.0 0.00 0.00 0.00 10 1016.4
20260502211002 10 0.0 0.0 0.00 0.00 0.00 10 1016.6
20260502210502 10 0.0 0.0 0.00 0.00 0.00 10 1016.4
20260502210002 10 0.0 0.0 0.00 0.00 0.00 10 1016.5
20260502205502 10 0.0 0.0 0.00 0.00 0.00 10 1016.5
20260502205002 10 0.0 0.0 0.00 0.00 0.00 10 1016.5
20260502204502 10 0.0 0.0 0.00 0.00 0.00 10 1016.7
20260502204002 10 0.0 0.0 0.00 0.00 0.00 10 1016.6
20260502203502 10 0.0 0.0 0.00 0.00 0.00 10 1016.6
20260502203001 10 0.0 0.0 0.00 0.00 0.00 10 1016.4
20260502202502 11 0.0 0.0 0.00 0.00 0.00 10 1016.6
20260502202003 11 0.0 0.0 0.00 0.00 0.00 10 1016.6
20260502201502 10 0.0 0.0 0.00 0.00 0.00 10 1016.9
20260502201001 11 0.0 0.0 0.00 0.00 0.00 10 1016.7
20260502200502 11 0.0 0.0 0.00 0.00 0.00 10 1016.7
20260502200003 11 0.0 0.0 0.00 0.00 0.00 10 1016.8
20260502195502 11 0.0 0.0 0.00 0.00 0.00 10 1016.7
20260502195002 11 0.0 0.0 0.00 0.00 0.00 10 1016.8
20260502194502 11 0.0 0.0 0.00 0.00 0.00 10 1016.8
20260502194002 11 0.0 0.0 0.00 0.00 0.00 10 1016.6
20260502193502 11 0.0 0.0 0.00 0.00 0.00 10 1016.9
20260502193002 11 0.0 0.0 0.00 0.00 0.00 10 1016.9
20260502192002 11 0.0 0.0 0.00 0.00 0.00 10 1017.1
20260502191502 12 0.0 0.0 0.00 0.00 0.00 10 1017.1
20260502191001 12 0.0 0.0 0.00 0.00 0.00 10 1017.1
20260502190502 12 0.0 0.0 0.00 0.00 0.00 10 1017.0
20260502190002 12 0.0 0.0 0.00 0.00 0.00 10 1017.1
20260502185502 12 0.0 0.0 0.00 0.00 0.00 10 1017.1
20260502185002 12 0.0 0.0 0.00 0.00 0.00 10 1017.0
20260502184501 12 0.0 0.0 0.00 0.00 0.00 10 1016.9
20260502184002 12 0.0 0.0 0.00 0.00 0.00 10 1016.9
20260502183502 13 0.0 0.0 0.00 0.00 0.00 10 1017.0
20260502183002 13 0.0 0.0 0.00 0.00 0.00 10 1017.0
20260502182501 13 0.0 0.0 0.00 0.00 0.00 10 1017.0
20260502182002 13 0.0 0.0 0.00 0.00 0.00 10 1017.0
20260502181502 13 0.0 0.0 0.00 0.00 0.00 10 1016.9
20260502181002 14 0.0 0.0 0.00 0.00 0.00 10 1016.9
20260502180502 14 0.0 0.0 0.00 0.00 0.00 10 1016.9
20260502170502 17 0.0 0.0 0.00 0.00 0.00 10 1016.9
20260502164002 17 0.0 0.0 0.00 0.00 0.00 10 1017.0
20260502163502 18 0.0 0.0 0.00 0.00 0.00 10 1017.1
20260502163001 18 0.0 0.0 0.00 0.00 0.00 10 1017.1
20260502162502 18 0.0 0.0 0.00 0.00 0.00 10 1017.1
20260502162002 19 0.0 0.0 0.00 0.00 0.00 10 1017.2
20260502161502 19 0.0 0.0 0.00 0.00 0.00 10 1017.2
20260502161002 20 0.0 0.0 0.00 0.00 0.00 10 1017.2
20260502160502 19 0.0 0.0 0.00 0.00 0.00 10 1017.3
20260502151502 21 0.0 0.0 0.00 0.00 0.00 10 1017.7
20260502151002 21 0.0 0.0 0.00 0.00 0.00 10 1017.8
20260502150502 21 0.0 0.0 0.00 0.00 0.00 10 1017.9
20260502130502 23 0.0 0.0 0.00 0.00 0.00 10 1018.8
20260502123502 22 0.0 0.0 0.00 0.00 0.00 10 1019.3
20260502123002 22 0.0 0.0 0.00 0.00 0.00 10 1019.4
20260502122502 22 0.0 0.0 0.00 0.00 0.00 10 1019.4
20260502122002 22 0.0 0.0 0.00 0.00 0.00 10 1019.6
20260502121501 22 0.0 0.0 0.00 0.00 0.00 10 1019.5
20260502121002 22 0.0 0.0 0.00 0.00 0.00 10 1019.6
20260502120502 22 0.0 0.0 0.00 0.00 0.00 10 1019.6
20260502115501 22 0.0 0.0 0.00 0.00 0.00 10 1019.9
20260502115002 21 0.0 0.0 0.00 0.00 0.00 10 1019.7
20260502114502 22 0.0 0.0 0.00 0.00 0.00 10 1020.0
20260502114002 21 0.0 0.0 0.00 0.00 0.00 10 1020.0
20260502113502 21 0.0 0.0 0.00 0.00 0.00 10 1020.1
20260502113002 21 0.0 0.0 0.00 0.00 0.00 10 1020.2
20260502112502 21 0.0 0.0 0.00 0.00 0.00 10 1020.1
20260502112002 21 0.0 0.0 0.00 0.00 0.00 10 1020.4
20260502111502 21 0.0 0.0 0.00 0.00 0.00 10 1020.4
20260502111002 21 0.0 0.0 0.00 0.00 0.00 10 1020.4
20260502110501 21 0.0 0.0 0.00 0.00 0.00 10 1020.4
20260502110002 21 0.0 0.0 0.00 0.00 0.00 10 1020.5
20260502105501 20 0.0 0.0 0.00 0.00 0.00 10 1020.7
20260502105002 21 0.0 0.0 0.00 0.00 0.00 10 1020.8
20260502104501 21 0.0 0.0 0.00 0.00 0.00 10 1020.8
20260502104002 21 0.0 0.0 0.00 0.00 0.00 10 1021.0
20260502103501 20 0.0 0.0 0.00 0.00 0.00 10 1020.9
20260502103002 21 0.0 0.0 0.00 0.00 0.00 10 1020.9
20260502102501 20 0.0 0.0 0.00 0.00 0.00 10 1021.0
20260502102002 20 0.0 0.0 0.00 0.00 0.00 10 1020.8
20260502101501 20 0.0 0.0 0.00 0.00 0.00 10 1020.9
20260502101001 20 0.0 0.0 0.00 0.00 0.00 10 1020.9
20260502100502 20 0.0 0.0 0.00 0.00 0.00 10 1020.8
20260502091501 18 0.0 0.0 0.00 0.00 0.00 10 1021.2
20260502091002 18 0.0 0.0 0.00 0.00 0.00 10 1021.5
20260502090502 9 0.0 0.0 0.00 0.00 0.00 10 1021.5
20260502071502 15 0.0 0.0 0.00 0.00 0.00 10 1022.0
20260502071001 15 0.0 0.0 0.00 0.00 0.00 10 1022.0
20260502070502 15 0.0 0.0 0.00 0.00 0.00 10 1021.9
20260502070002 15 0.0 0.0 0.00 0.00 0.00 10 1021.8
20260502065001 15 0.0 0.0 0.00 0.00 0.00 10 1022.0
20260502064502 13 0.0 0.0 0.00 0.00 0.00 10 1022.0
20260502064002 13 0.0 0.0 0.00 0.00 0.00 10 1021.9
20260502063502 13 0.0 0.0 0.00 0.00 0.00 10 1021.8
20260502063002 13 0.0 0.0 0.00 0.00 0.00 10 1021.8
20260502062502 13 0.0 0.0 0.00 0.00 0.00 10 1021.8
20260502062002 13 0.0 0.0 0.00 0.00 0.00 10 1021.9
20260502061501 12 0.0 0.0 0.00 0.00 0.00 10 1022.0
20260502061002 12 0.0 0.0 0.00 0.00 0.00 10 1021.9
20260502060502 11 0.0 0.0 0.00 0.00 0.00 10 1021.9
20260502060002 11 0.0 0.0 0.00 0.00 0.00 97 1021.8